Regional Weather Roundup
Issued by NWS

Home | Current Version | Previous Version | Text Only | Print | Product List | Glossary Off
Versions: 1 2 3 4 5 6 7 8 9 10 11 12 13 14 15 16 17 18 19 20 21 22 23 24 25 26 27 28 29 30 31 32 33 34 35 36 37 38 39 40 41 42 43 44 45 46 47 48 49 50

145
ASUS43 KBIS 211302
RWRND

NORTH DAKOTA REGIONAL WEATHER ROUNDUP
NATIONAL WEATHER SERVICE BISMARCK ND
800 AM CDT THU SEP 21 2017

NOTE: "FAIR" INDICATES FEW OR NO CLOUDS BELOW 12,000 FEET WITH NO
SIGNIFICANT WEATHER AND/OR OBSTRUCTIONS TO VISIBILITY.


NDZ001>003-009>011-017-211400-
NORTHWEST NORTH DAKOTA

CITY           SKY/WX    TMP DP  RH WIND       PRES   REMARKS
WILLISTON      CLOUDY    48  41  76 CALM      29.67S
MINOT          CLOUDY    54  43  66 N5        29.66R
MINOT AFB      CLOUDY    52  44  75 NE3       29.65R
$$

NDZ018>021-031>035-040>046-211400-
SOUTHWEST NORTH DAKOTA

CITY           SKY/WX    TMP DP  RH WIND       PRES   REMARKS
BISMARCK       PTCLDY    59  46  62 SE17      29.68F
DICKINSON      PTCLDY    53  42  66 CALM      29.64R
GARRISON         N/A     55  44  66 VRB5      29.65F
HETTINGER ARPT CLOUDY    56  38  50 SE9       29.66S
$$

NDZ004>008-012>016-024-026-027-054-211400-
NORTHEAST NORTH DAKOTA

CITY           SKY/WX    TMP DP  RH WIND       PRES   REMARKS
GRAND FORKS    CLOUDY    58  49  72 S17G25    29.80F
GRND FRKS AFB  CLOUDY    57  46  67 S15G22    29.79F
DEVILS LAKE    CLOUDY    56  47  71 SE10      29.76R
$$

NDZ022-023-025-028>030-036>039-047>053-211400-
SOUTHEAST NORTH DAKOTA

CITY           SKY/WX    TMP DP  RH WIND       PRES   REMARKS
FARGO          PTCLDY    56  48  74 S16G25    29.85F
JAMESTOWN      CLOUDY    54  47  77 S10       29.78R
$$





USA.gov is the U.S. government's official web portal to all federal, state and local government web resources and services.